Hourly Weather Sobakow

Today, 24 January, Sunday

Time Temperature Precipitation Wind Pressure Humidity
00:00 -1°C° 0 mm 3 mps 726 mmHg 88%
01:00 -2°C° 0 mm 3 mps 727 mmHg 88%
02:00 -2°C° 0 mm 3 mps 727 mmHg 89%
03:00 -2°C° 0 mm 3 mps 727 mmHg 89%
04:00 -2°C° 0 mm 3 mps 726 mmHg 89%
05:00 -2°C° 0 mm 2 mps 727 mmHg 89%
06:00 -1°C° 0 mm 2 mps 727 mmHg 88%
07:00 -1°C° 0 mm 2 mps 727 mmHg 88%
08:00 -1°C° 0 mm 2 mps 727 mmHg 87%
09:00 -1°C° 0 mm 2 mps 727 mmHg 85%
10:00 0°C° 0 mm 3 mps 727 mmHg 84%
11:00 0°C° 0 mm 3 mps 727 mmHg 85%
12:00 0°C° 0 mm 3 mps 727 mmHg 86%
13:00 0°C° 0 mm 3 mps 727 mmHg 88%
14:00 +1°C° 0.1 mm 2 mps 727 mmHg 90%
15:00 -1°C° 0.1 mm 2 mps 728 mmHg 93%
16:00 -1°C° 0.1 mm 2 mps 728 mmHg 95%
17:00 -1°C° 0 mm 2 mps 728 mmHg 95%
18:00 -2°C° 0 mm 2 mps 728 mmHg 94%
19:00 -2°C° 0 mm 2 mps 729 mmHg 94%
20:00 -2°C° 0 mm 2 mps 729 mmHg 94%
21:00 -2°C° 0 mm 2 mps 729 mmHg 94%
22:00 -2°C° 0 mm 2 mps 729 mmHg 94%
23:00 -2°C° 0 mm 2 mps 729 mmHg 94%

Tomorrow, 25 January, Monday

Time Temperature Precipitation Wind Pressure Humidity
00:00 -3°C° 0 mm 2 mps 729 mmHg 94%
01:00 -3°C° 0 mm 2 mps 729 mmHg 95%
02:00 -3°C° 0 mm 2 mps 729 mmHg 94%
03:00 -3°C° 0 mm 2 mps 730 mmHg 93%
04:00 0°C° 0 mm 1 mps 730 mmHg 92%
05:00 0°C° 0 mm 1 mps 730 mmHg 92%
06:00 0°C° 0 mm 1 mps 731 mmHg 92%
07:00 -3°C° 0 mm 2 mps 731 mmHg 91%
08:00 -2°C° 0 mm 2 mps 731 mmHg 89%
09:00 -2°C° 0 mm 2 mps 732 mmHg 86%
10:00 -1°C° 0 mm 3 mps 732 mmHg 84%
11:00 -2°C° 0 mm 4 mps 732 mmHg 83%
12:00 -2°C° 0 mm 4 mps 732 mmHg 81%
13:00 -2°C° 0 mm 5 mps 732 mmHg 80%
14:00 -2°C° 0 mm 5 mps 733 mmHg 78%
15:00 -2°C° 0 mm 4 mps 733 mmHg 77%
16:00 -3°C° 0 mm 4 mps 733 mmHg 76%
17:00 -3°C° 0 mm 4 mps 733 mmHg 78%
18:00 -3°C° 0 mm 4 mps 734 mmHg 80%
19:00 -2°C° 0 mm 3 mps 734 mmHg 82%
20:00 -3°C° 0 mm 4 mps 734 mmHg 82%
21:00 -3°C° 0 mm 4 mps 734 mmHg 83%
22:00 -4°C° 0 mm 5 mps 734 mmHg 83%
23:00 -4°C° 0 mm 5 mps 734 mmHg 82%

Day after tomorrow, 26 January, Tuesday

Time Temperature Precipitation Wind Pressure Humidity
00:00 -4°C° 0 mm 5 mps 734 mmHg 81%
01:00 -4°C° 0 mm 5 mps 734 mmHg 81%
02:00 -4°C° 0 mm 5 mps 734 mmHg 80%
03:00 -5°C° 0 mm 6 mps 734 mmHg 79%
04:00 -5°C° 0 mm 6 mps 734 mmHg 79%
05:00 -5°C° 0 mm 6 mps 734 mmHg 79%
06:00 -6°C° 0 mm 7 mps 734 mmHg 80%
07:00 -6°C° 0 mm 7 mps 735 mmHg 81%
08:00 -6°C° 0 mm 7 mps 735 mmHg 81%
09:00 -6°C° 0 mm 7 mps 735 mmHg 80%
10:00 -6°C° 0 mm 7 mps 735 mmHg 80%
11:00 -4°C° 0 mm 7 mps 735 mmHg 79%
12:00 -4°C° 0 mm 7 mps 735 mmHg 78%
13:00 -4°C° 0 mm 7 mps 736 mmHg 78%
14:00 -4°C° 0.1 mm 7 mps 736 mmHg 79%
15:00 -4°C° 0.1 mm 7 mps 736 mmHg 81%
16:00 -4°C° 0.1 mm 7 mps 736 mmHg 83%
17:00 -4°C° 0.1 mm 7 mps 737 mmHg 81%
18:00 -4°C° 0.1 mm 7 mps 737 mmHg 78%
19:00 -4°C° 0.1 mm 7 mps 737 mmHg 76%
20:00 -4°C° 0 mm 7 mps 737 mmHg 78%
21:00 -4°C° 0 mm 7 mps 737 mmHg 80%
22:00 -4°C° 0 mm 6 mps 737 mmHg 81%
23:00 -4°C° 0 mm 6 mps 737 mmHg 82%

27 January, Wednesday

Time Temperature Precipitation Wind Pressure Humidity
00:00 -5°C° 0 mm 6 mps 737 mmHg 82%
01:00 -5°C° 0 mm 6 mps 737 mmHg 83%
02:00 -5°C° 0 mm 6 mps 737 mmHg 83%
03:00 -5°C° 0 mm 6 mps 737 mmHg 84%
04:00 -5°C° 0 mm 5 mps 737 mmHg 84%
05:00 -5°C° 0 mm 5 mps 737 mmHg 86%
06:00 -5°C° 0 mm 5 mps 737 mmHg 87%
07:00 -5°C° 0 mm 5 mps 736 mmHg 89%
08:00 -4°C° 0 mm 4 mps 736 mmHg 85%
09:00 -3°C° 0 mm 4 mps 737 mmHg 82%
10:00 -3°C° 0 mm 4 mps 737 mmHg 79%
11:00 -2°C° 0 mm 4 mps 736 mmHg 75%
12:00 -2°C° 0 mm 4 mps 736 mmHg 71%
13:00 -1°C° 0 mm 4 mps 736 mmHg 68%
14:00 -1°C° 0 mm 3 mps 736 mmHg 71%
15:00 -1°C° 0 mm 3 mps 736 mmHg 75%
16:00 -1°C° 0 mm 2 mps 736 mmHg 79%
17:00 -2°C° 0 mm 2 mps 736 mmHg 83%
18:00 -2°C° 0 mm 2 mps 737 mmHg 88%
19:00 0°C° 0 mm 1 mps 737 mmHg 93%
20:00 0°C° 0.1 mm 1 mps 737 mmHg 94%
21:00 0°C° 0.1 mm 1 mps 738 mmHg 94%
22:00 0°C° 0.1 mm 1 mps 738 mmHg 95%
23:00 -2°C° 0 mm 2 mps 738 mmHg 95%

28 January, Thursday

Time Temperature Precipitation Wind Pressure Humidity
00:00 -2°C° 0 mm 2 mps 738 mmHg 95%
01:00 -2°C° 0 mm 2 mps 738 mmHg 95%
02:00 -2°C° 0 mm 3 mps 739 mmHg 94%
03:00 -2°C° 0 mm 3 mps 739 mmHg 94%
04:00 -2°C° 0 mm 3 mps 739 mmHg 93%
05:00 -2°C° 0 mm 3 mps 739 mmHg 92%
06:00 -2°C° 0 mm 3 mps 739 mmHg 91%
07:00 -2°C° 0 mm 3 mps 739 mmHg 91%
08:00 -2°C° 0 mm 3 mps 739 mmHg 89%
09:00 -2°C° 0 mm 2 mps 739 mmHg 87%
10:00 -1°C° 0 mm 2 mps 738 mmHg 85%
11:00 -1°C° 0 mm 2 mps 738 mmHg 83%
12:00 -1°C° 0 mm 2 mps 737 mmHg 81%
13:00 -1°C° 0 mm 3 mps 737 mmHg 79%
14:00 -1°C° 0.1 mm 3 mps 737 mmHg 84%
15:00 -1°C° 0.1 mm 2 mps 736 mmHg 89%
16:00 -1°C° 0.1 mm 2 mps 736 mmHg 94%
17:00 -2°C° 0.4 mm 3 mps 735 mmHg 95%
18:00 -2°C° 0.4 mm 3 mps 735 mmHg 96%
19:00 -2°C° 0.4 mm 3 mps 735 mmHg 97%

29 January, Friday

Time Temperature Precipitation Wind Pressure Humidity
Show more